Location: Peebles
(55.6412°N, 3.1714°W)
Time: 21:16:12
(UTC+01:00)

deb AGENA D - Pass Details

Date: 04 July 2022
Orbit: 951 x 1019 km, 99.8° (Epoch: 17 August)

Event Time Altitude Azimuth Distance (km) Brightness Sun altitude
Exits shadow 03:23:24 - 209° (SSW) 2,948 ? -7.0°
Reaches altitude 10° 03:23:52 10° 212° (SSW) 2,803 ? -7.0°
Maximum altitude 03:29:09 27° 269° (W) 1,839 ? -6.6°
Drops below altitude 10° 03:34:28 10° 326° (NW) 2,813 ? -6.2°
Sets 03:37:24 0° 338° (NNW) 3,763 ? -6.0°
